Theta_e
315 315 315 314 312 314 315 316 316 317 318 320 324 323 320 317 314 308 302 307 310 313 312 304 302 301 301 299 302 301 289 286 289 290 292 296 295 298 298 296 297 299 301 304 303
312 315 314 314 312 311 312 314 315 316 317 318 321 322 319 315 305 302 313 317 316 315 302 299 297 298 294 296 297 295 286 287 293 295 294 296 294 294 294 293 294 296 300 303 302
312 313 312 312 313 311 311 310 312 313 314 318 320 321 318 311 300 301 318 317 315 311 304 301 299 296 292 293 292 294 288 292 295 296 292 291 291 294 292 290 293 294 297 299 300
311 311 310 311 311 312 310 309 311 311 313 316 321 319 313 308 291 305 317 316 314 307 303 298 296 291 289 288 291 288 290 291 292 292 291 290 292 290 292 293 297 297 298 297 298
310 310 309 309 309 312 309 309 309 310 311 314 319 315 310 301 300 311 315 310 304 303 298 296 292 291 287 288 289 288 288 290 292 291 291 292 290 290 290 294 296 296 296 296 297
309 309 308 308 309 311 309 309 309 310 309 317 317 315 306 296 310 307 304 303 302 301 298 296 293 293 289 288 287 289 289 289 290 290 290 289 289 290 291 293 293 294 295 295 296
309 309 308 308 308 310 308 308 309 311 312 317 315 311 304 300 309 304 304 302 302 301 297 298 297 293 291 288 291 289 285 286 287 289 288 290 285 286 292 292 291 292 293 295 296
308 308 308 308 308 307 308 308 308 311 311 315 314 308 300 310 310 303 303 301 303 302 300 300 299 294 291 291 285 283 283 281 286 288 289 289 284 288 292 291 292 293 294 295 296
309 308 308 308 308 309 310 311 311 311 314 316 307 305 298 309 300 302 302 299 301 301 301 300 296 290 288 282 280 281 279 280 283 289 288 288 285 289 293 293 292 293 294 295 296
308 309 309 309 309 312 314 315 313 312 311 309 305 298 299 296 300 301 303 303 299 298 296 293 288 284 283 280 274 278 279 280 280 286 287 285 285 290 293 293 292 293 294 295 296
308 308 309 309 309 310 306 306 298 297 302 297 296 295 297 301 302 299 302 299 298 293 286 288 282 279 282 282 281 280 280 279 282 286 285 284 285 288 292 293 293 293 294 295 296
308 308 308 308 310 310 305 299 298 299 292 299 298 298 300 301 293 297 301 292 291 285 287 284 279 284 286 285 284 282 279 279 283 286 287 287 286 290 292 292 293 292 294 295 295
309 309 307 308 307 306 302 301 306 304 290 294 298 297 298 299 293 293 297 294 289 286 285 282 285 287 286 284 282 279 278 279 281 285 289 287 286 286 288 290 293 297 297 297 296
309 309 307 308 302 302 299 305 306 304 284 287 292 296 297 297 292 300 300 295 290 286 287 285 288 285 284 283 282 278 283 284 283 284 280 288 277 283 286 287 293 296 297 299 300
309 309 309 307 300 297 302 305 305 299 272 290 292 301 298 292 293 294 302 297 288 288 285 282 285 285 284 283 285 284 287 286 286 284 284 282 280 283 286 288 290 296 297 300 301
309 309 307 302 302 302 304 302 298 278 273 285 291 290 290 292 293 296 295 297 294 287 286 285 289 288 286 288 287 289 287 288 287 284 276 278 280 282 285 287 290 296 298 298 300
308 308 303 302 294 301 299 291 278 276 286 283 285 289 289 287 288 291 288 286 281 275 273 282 285 288 289 286 288 288 286 278 273 271 275 281 280 282 289 290 292 294 295 296 297
307 304 301 301 299 298 292 284 273 283 284 288 289 290 285 288 287 288 286 281 287 285 277 274 275 286 289 288 287 288 287 281 274 272 276 283 278 283 291 292 293 296 295 295 295
304 295 295 297 300 295 288 279 276 282 286 285 287 282 282 288 286 285 285 284 287 286 279 279 277 288 289 290 291 288 284 291 283 282 278 278 283 291 294 290 291 292 292 292 294
293 291 292 298 297 292 285 283 282 288 288 287 281 282 279 283 283 283 283 287 288 290 290 286 280 286 290 292 291 289 290 280 283 275 273 277 279 283 287 287 290 290 289 290 294
291 290 295 297 295 290 279 282 286 292 290 286 282 282 281 282 283 282 282 287 290 290 290 290 286 282 286 286 285 286 284 285 284 282 276 276 279 290 289 290 289 289 290 290 294
289 285 297 296 287 282 285 286 293 289 292 290 287 285 284 284 283 282 282 286 291 292 289 291 288 281 282 287 288 287 285 283 278 277 279 278 280 292 293 292 291 290 291 293 295
287 287 295 296 282 278 284 287 289 289 288 288 287 289 287 284 282 284 285 291 292 291 287 289 284 277 277 281 285 284 286 285 283 281 278 276 280 291 292 292 292 292 293 294 295
287 282 289 288 285 284 283 284 285 291 289 290 288 289 286 285 285 283 285 290 292 292 297 294 283 280 275 279 282 282 283 284 283 276 278 279 281 284 288 290 292 293 294 294 294
287 283 284 280 285 283 284 285 285 285 289 289 287 287 285 281 282 281 285 287 290 293 290 288 281 279 282 283 283 283 283 282 280 281 279 280 281 285 287 289 291 292 291 289 289
287 286 285 283 284 282 286 284 286 287 287 285 286 287 287 284 285 283 285 285 284 286 286 286 280 281 276 283 283 281 282 282 283 283 282 282 283 288 289 289 288 289 288 287 288
289 288 288 284 283 282 283 284 287 287 289 289 288 286 284 287 290 290 289 288 288 286 284 283 281 277 275 279 279 276 280 281 283 283 284 282 286 288 287 287 288 288 288 288 288
Wind_Speed
10 13 9 6 1 4 5 9 10 11 11 12 11 17 14 8 5 3 3 2 2 2 2 0 6 4 5 5 4 2 4 1 3 5 2 1 5 1 1 3 3 3 3 5 11
8 15 10 7 4 3 2 7 11 12 11 13 12 15 15 11 3 6 2 4 5 3 3 4 4 5 5 3 4 4 3 5 1 2 2 4 1 3 3 2 5 9 8 8 7
9 10 7 1 7 1 2 2 6 8 11 10 10 16 13 6 6 3 6 5 5 5 4 3 5 5 5 4 4 1 3 3 1 1 3 3 4 2 1 6 11 7 6 9 10
9 8 3 5 5 10 4 3 4 6 7 10 6 18 6 1 5 4 2 5 5 4 4 4 5 5 4 4 2 4 3 1 2 1 3 3 3 4 7 15 10 10 9 6 11
9 7 3 4 6 13 3 4 6 3 4 5 17 23 5 6 5 6 11 5 6 7 5 3 4 4 6 4 3 3 1 4 4 7 7 4 8 6 17 16 14 13 12 13 13
9 7 3 5 5 11 2 4 3 3 3 5 21 9 6 11 6 2 7 6 5 6 5 5 3 3 6 4 4 0 3 6 4 5 4 4 4 1 7 6 9 9 12 12 14
7 9 5 6 2 9 2 3 3 4 6 9 6 4 14 9 3 6 7 4 3 3 6 4 4 6 3 3 2 1 5 5 3 4 4 4 2 9 11 8 11 12 13 15 15
7 7 5 4 4 3 4 3 2 2 4 6 2 6 8 4 5 10 6 7 8 6 7 4 7 8 5 3 5 5 4 5 1 5 1 3 5 4 5 6 13 16 16 16 18
9 6 5 5 4 6 9 8 7 3 7 14 1 5 9 10 5 3 4 6 5 5 8 6 6 5 4 4 4 7 2 2 8 1 3 3 11 4 11 17 19 17 17 17 21
12 11 9 10 9 9 5 16 14 11 10 4 3 11 4 3 3 3 3 5 5 3 5 8 6 4 4 5 2 1 1 3 6 3 3 10 22 15 14 14 17 17 17 17 19
14 12 11 9 6 8 10 13 6 7 8 6 8 13 7 4 4 5 3 4 3 6 4 4 7 3 2 3 4 4 2 3 6 6 4 9 17 21 16 12 13 13 16 18 19
13 9 8 12 12 10 5 6 5 4 19 16 21 15 6 2 5 5 3 4 5 4 1 5 3 2 5 4 3 2 3 6 10 8 5 11 20 17 8 6 7 12 15 17 18
13 8 4 11 4 12 15 7 3 3 8 9 7 7 2 5 4 3 3 1 3 4 4 4 3 5 2 1 2 2 4 3 6 7 9 9 8 4 2 3 5 9 7 10 11
14 10 3 7 8 2 6 5 5 2 7 8 6 5 4 3 5 2 3 2 4 3 3 2 1 2 2 3 5 3 8 7 6 6 5 5 7 5 4 10 9 13 9 13 13
11 14 18 11 4 3 2 5 6 2 9 7 4 2 2 5 5 4 3 4 3 2 5 3 2 2 3 6 6 4 4 6 8 6 5 1 4 6 4 8 16 15 12 9 12
16 13 9 6 4 2 4 8 2 8 7 3 4 3 4 5 2 2 3 4 2 4 4 4 1 3 4 2 5 4 3 2 2 2 3 4 2 4 5 10 15 14 13 12 8
11 12 7 2 0 6 2 3 7 8 1 2 2 1 3 3 4 2 3 4 3 5 5 5 3 2 2 2 2 2 3 3 4 3 4 4 2 8 5 11 13 12 13 13 12
10 10 6 2 1 2 3 7 13 2 4 1 2 4 4 0 3 2 2 2 3 2 3 3 4 6 5 4 2 1 1 2 4 3 6 2 5 3 3 9 12 10 11 11 11
6 3 3 4 3 3 7 9 2 2 3 4 2 3 4 2 3 1 4 3 5 6 4 3 5 2 4 3 2 1 1 0 3 2 3 3 5 2 5 10 8 9 10 12 10
3 2 3 4 2 5 7 8 3 1 4 2 2 1 3 2 1 2 1 3 2 3 1 0 5 2 1 2 2 4 2 2 0 3 5 4 3 5 12 8 6 4 5 8 9
4 4 2 2 3 8 6 4 3 3 1 2 3 3 1 2 3 2 2 3 1 3 1 2 2 6 2 5 6 1 2 1 1 2 2 5 4 2 5 5 3 3 4 4 6
2 5 1 4 7 2 4 2 1 1 1 1 2 2 4 3 1 0 1 3 4 4 1 1 2 5 7 1 2 0 3 4 3 3 3 2 6 1 2 3 1 0 1 0 5
3 1 3 4 5 3 1 2 1 3 3 3 3 3 2 2 3 1 1 2 6 5 4 3 1 5 8 5 1 3 3 3 3 2 5 3 5 3 3 4 2 3 6 5 3
3 4 6 6 1 6 4 2 2 2 2 1 1 3 3 3 1 3 2 1 6 5 5 5 3 7 7 7 3 5 5 4 4 2 2 7 6 5 5 7 7 8 6 4 4
4 1 1 1 4 4 2 2 1 2 1 3 3 4 1 1 2 2 1 3 2 3 2 4 5 5 8 14 9 14 16 8 9 7 6 3 5 7 9 10 10 6 5 5 5
4 3 3 2 4 2 2 4 4 3 4 1 4 2 4 4 6 5 4 4 4 1 4 1 4 2 7 7 5 8 11 12 14 8 9 8 12 10 3 5 6 8 7 7 6
0 1 3 2 2 2 2 2 4 1 3 2 4 3 3 8 8 8 7 4 6 7 5 5 3 2 7 4 9 6 5 7 5 6 7 7 9 4 4 7 8 9 8 8 7
Wind_Direction
329 289 270 284 263 7 27 54 48 35 17 15 339 159 147 138 106 70 60 172 157 60 66 52 39 38 52 69 47 111 69 143 184 168 255 45 19 319 213 255 312 287 259 278 314
300 282 269 269 241 237 350 51 50 30 33 17 7 155 141 137 94 65 257 144 66 42 64 96 66 48 55 46 26 80 118 200 196 198 271 317 312 332 321 325 266 268 266 269 308
310 319 322 210 300 257 272 297 60 35 21 10 337 143 136 133 90 341 293 93 73 63 72 79 83 69 61 41 5 108 156 166 220 260 12 299 299 244 279 279 230 237 251 300 301
340 335 27 88 36 313 318 3 56 72 359 356 249 114 42 226 115 265 126 114 82 85 65 56 52 68 86 105 0 96 55 33 259 92 324 271 293 269 208 246 258 247 256 268 283
351 12 73 86 77 304 291 355 33 38 13 11 119 117 130 56 64 307 75 69 51 71 62 89 64 115 112 111 102 80 338 284 272 278 252 253 247 252 252 248 255 266 274 268 264
4 13 80 110 78 270 319 353 26 77 51 14 132 137 116 81 323 358 74 58 64 74 58 53 108 102 96 76 70 281 268 277 287 304 268 283 282 233 267 271 268 279 276 265 257
7 15 44 127 60 265 338 329 6 65 113 131 118 152 73 105 335 65 72 22 40 82 85 33 105 75 127 90 16 80 348 335 16 356 311 280 260 234 273 310 297 295 290 287 271
359 24 19 127 189 276 262 237 186 119 114 106 93 88 76 299 293 66 70 47 44 58 91 63 74 88 59 124 33 46 48 359 66 322 349 38 269 267 307 318 299 292 286 280 272
38 44 45 44 350 294 248 226 178 109 93 130 90 87 92 310 59 31 56 90 62 42 45 62 61 75 39 71 35 16 48 327 313 336 306 43 289 251 289 308 303 300 297 293 291
45 40 45 39 22 337 181 148 147 90 87 47 52 72 347 61 54 48 30 69 76 28 31 39 50 74 42 55 208 329 12 286 264 308 12 294 275 278 282 301 296 299 299 295 289
27 26 52 45 14 53 56 105 69 52 21 70 97 78 123 126 44 24 3 61 45 42 58 18 66 71 113 109 129 125 122 270 254 274 287 262 275 287 297 298 306 308 304 301 298
18 29 55 31 31 63 59 63 55 149 72 65 72 84 90 115 81 3 21 76 49 71 52 33 88 159 117 127 104 98 358 279 293 259 250 292 295 296 297 286 282 303 303 316 318
37 32 34 34 55 54 70 59 63 278 84 40 50 82 338 69 81 356 28 70 94 59 51 102 143 137 152 162 91 233 185 228 242 303 264 304 284 331 348 292 313 316 310 325 306
51 49 50 353 46 3 75 320 332 7 90 20 25 26 6 93 53 343 350 113 46 83 85 104 120 159 205 273 139 262 204 236 274 331 316 50 293 286 322 315 343 322 343 339 342
61 66 65 63 115 53 101 291 279 205 75 7 0 255 59 85 156 349 345 4 77 95 72 266 172 174 241 217 179 231 179 238 276 264 312 143 260 266 312 345 336 329 331 352 348
41 58 64 33 52 16 321 316 6 44 60 23 323 6 58 27 35 111 22 51 85 53 19 237 54 203 226 233 202 329 305 9 93 53 273 231 199 294 7 329 319 328 349 352 360
20 20 50 80 287 318 324 62 46 56 261 16 69 322 92 37 37 45 27 14 62 54 357 329 232 253 179 235 161 211 287 337 360 8 240 182 183 264 344 339 323 345 4 8 4
355 16 351 93 169 260 57 53 61 326 54 58 91 90 64 111 29 31 67 360 291 150 109 95 319 189 171 222 161 245 67 337 304 322 296 63 241 280 45 358 340 17 17 13 12
23 354 8 319 358 45 66 52 132 123 125 127 33 80 354 88 132 196 211 219 187 184 132 29 287 278 184 178 153 49 259 54 267 68 289 255 284 217 342 350 357 17 15 9 10
74 44 309 341 97 48 72 95 104 211 129 159 132 218 155 215 182 263 263 227 198 176 137 273 305 231 352 117 257 183 234 63 208 313 294 282 271 292 327 332 354 27 12 355 5
67 54 240 77 75 44 70 88 99 194 189 152 145 112 109 200 183 237 314 275 263 98 74 36 69 293 12 201 181 117 273 213 310 185 234 300 263 209 308 322 347 350 31 345 1
96 52 248 141 55 31 51 356 274 6 228 225 162 143 167 176 170 171 251 233 174 140 85 256 336 286 247 332 11 273 228 136 139 246 233 268 273 178 63 28 45 243 141 148 29
68 272 314 106 89 2 335 61 97 39 37 14 45 39 170 155 30 243 238 351 157 153 161 177 306 307 344 10 89 209 222 164 96 64 225 187 262 182 138 117 145 191 197 217 197
72 50 344 46 46 122 127 22 87 5 107 115 27 86 52 38 192 337 317 49 185 189 187 164 198 194 206 220 191 268 201 214 156 176 223 240 297 222 212 172 195 216 217 227 229
27 14 171 341 357 103 115 118 85 32 6 30 81 81 118 26 344 243 260 304 194 233 168 156 246 195 248 258 253 256 253 201 196 214 196 221 227 270 209 202 200 210 211 233 234
104 117 31 41 346 356 354 202 173 208 182 242 130 187 169 193 193 223 180 204 223 133 167 154 273 337 282 258 228 251 236 232 224 227 245 262 278 222 214 161 191 212 205 219 230
358 0 97 279 30 30 276 228 245 220 261 218 176 159 225 232 206 216 207 186 177 168 185 175 188 19 265 317 310 307 236 205 213 204 176 206 230 172 197 209 211 215 209 215 214